Regional Weather Roundup
Issued by NWS Little Rock, AR

Home | Current Version | Previous Version | Graphics & Text | Print | Product List | Glossary On
Versions: 1 2 3 4 5 6 7 8 9 10 11 12 13 14 15 16 17 18 19 20 21 22 23 24 25 26 27 28 29 30 31 32
000
ASUS44 KLZK 211605
RWRLZK

WEATHER ROUNDUP FOR ARKANSAS
NATIONAL WEATHER SERVICE LITTLE ROCK AR
1100 AM CDT SUN MAY 21 2017

NOTE: "FAIR" INDICATES FEW OR NO CLOUDS BELOW 12,000 FEET WITH NO
SIGNIFICANT WEATHER AND/OR OBSTRUCTIONS TO VISIBILITY.

ARZ001-003-010-029-211700-
NORTHWEST ARKANSAS

CITY           SKY/WX    TMP DP  RH WIND       PRES   REMARKS
FAYETTEVILLE   SUNNY     61  44  53 N13       30.21R
FORT SMITH     SUNNY     67  46  47 NW9       30.20R
HARRISON       SUNNY     60  45  57 NW13G21   30.19R
BENTONVILLE    SUNNY     61  43  51 N5G16     30.22R
ROGERS         SUNNY     60  43  53 N10       30.22R
SILOAM SPGS    SUNNY     61  45  55 N5        30.23R
HIGHFILL       SUNNY     63  45  51 N10       30.22R
SPRINGDALE     SUNNY     61  45  55 N7        30.23R
$$

ARZ004-005-016-211700-
NORTH CENTRAL ARKANSAS

CITY           SKY/WX    TMP DP  RH WIND       PRES   REMARKS
BATESVILLE     SUNNY     70  50  49 NW12      30.13S
FLIPPIN        SUNNY     63  45  51 NW9       30.15R
MTN HOME       SUNNY     61  46  57 NW8G17    30.15R
$$

ARZ040-041-211700-
WEST CENTRAL ARKANSAS

CITY           SKY/WX    TMP DP  RH WIND       PRES   REMARKS
MENA           SUNNY     72  46  40 N8        30.18R
MOUNT IDA      SUNNY     71  47  42 N7        30.14S
$$

ARZ009-017-025-026-028-211700-
NORTHEAST ARKANSAS

CITY           SKY/WX    TMP DP  RH WIND       PRES   REMARKS
JONESBORO      SUNNY     73  49  42 W9        30.11R
NEWPORT        SUNNY     70  53  54 NW10      30.13R
WALNUT RIDGE   SUNNY     70  52  52 CALM      30.11S
BLYTHEVILLE    SUNNY     73  59  61 VRB7      30.10S
$$

ARZ022-023-033-042-044-211700-
CENTRAL ARKANSAS

CITY           SKY/WX    TMP DP  RH WIND       PRES   REMARKS
LITTLE ROCK    MOSUNNY   72  53  51 NW12      30.13F
N LITTLE ROCK    N/A     69  53  54 NW6       30.13S
JACKSONVILLE   SUNNY     72  53  50 NW10      30.12S
CONWAY           N/A     72  52  49 NW12G20   30.12F
SEARCY         SUNNY     71  52  50 MISG        N/A
HOT SPRINGS    SUNNY     72  49  44 NW8       30.15S
RUSSELLVILLE   SUNNY     70  51  51 W10G17    30.15S
CLINTON        FAIR      72  48  43 NW12G20   30.13S
$$

ARZ036-211700-
EAST ARKANSAS

CITY           SKY/WX    TMP DP  RH WIND       PRES   REMARKS
WEST MEMPHIS   CLOUDY    70  57  63 N7        30.11R
$$

ARZ050-053-066-070-073-211700-
SOUTHWEST ARKANSAS

CITY           SKY/WX    TMP DP  RH WIND       PRES   REMARKS
ARKADELPHIA    FAIR      73  53  49 N13       30.14S
CAMDEN         LGT RAIN  66  55  68 N6        30.13S
TEXARKANA      CLOUDY    66  58  75 SW10      30.21R
EL DORADO      CLOUDY    63  59  87 W10       30.17R THUNDER
DE QUEEN       MOSUNNY   72  51  47 NW6       30.16R
$$

ARZ056-057-069-211700-
SOUTHEAST ARKANSAS

CITY           SKY/WX    TMP DP  RH WIND       PRES   REMARKS
PINE BLUFF     MOSUNNY   72  55  55 N12       30.12F
STUTTGART      SUNNY     72  46  40 NW13      30.13R
MONTICELLO     CLOUDY    68  64  87 W3        30.13R

$$






USA.gov is the U.S. government's official web portal to all federal, state and local government web resources and services.